Weather History for Milan, Italy

Change the Weather History Date:

Thursday, December 20, 2012

  Actual Average Record
Temperature  
Mean Temperature 31 °F -  
Max Temperature 39 °F 43 °F 50 °F (2008)
Min Temperature 23 °F 25 °F 14 °F (2005)
Degree Days  
Heating Degree Days 34    
Moisture  
Dew Point 28 °F    
Average Humidity 88    
Maximum Humidity 100    
Minimum Humidity 65    
Precipitation  
Precipitation 0.00 in 0.08 in - ()
Sea Level Pressure  
Sea Level Pressure 30.11 in    
Wind  
Wind Speed 1 mph ()    
Max Wind Speed 5 mph    
Max Gust Speed -    
Visibility 5.7 miles    
Events      
Averages and records for this station are not official NWS values.
T = Trace of Precipitation, MM = Missing Value Source: Averaged Metar Reports

Daily Weather History Graph

Daily Weather History Graph

Search for Another Location

Airport:

Trip Planner

Search our weather history database for the weather conditions in past years. The results will help you decide how hot, cold, wet, or windy it might be!

Date:

Astronomy

Dec. 20, 2012 Rise Set
Actual Time 8:02 AM CET 4:43 PM CET
Civil Twilight 7:27 AM CET 5:17 PM CET
Nautical Twilight 6:50 AM CET 5:55 PM CET
Astronomical Twilight 6:13 AM CET 6:31 PM CET
Moon 12:09 PM CET (12/20) 12:15 AM CET (12/20)
Length of Visible Light 9h 50m
Length of Day
8h 41m
First Quarter, 52% of the Moon is Illuminated
Dec 20
First Quarter
Dec 28
Full
Jan 5
Last Quarter
Jan 11
New
Jan 19
First Quarter

Hourly Weather History & Observations

Time (CET) Temp. Windchill Dew Point Humidity Pressure Visibility Wind Dir Wind Speed Gust Speed Precip Events Conditions
12:20 AM 24.8 °F - 24.8 °F 100% 30.18 in - Variable 1.2 mph - N/A   Clear
12:50 AM 23.0 °F - 23.0 °F 100% 30.18 in - Calm Calm - N/A   Clear
1:20 AM 23.0 °F - 23.0 °F 100% 30.18 in - North 1.2 mph - N/A   Clear
1:50 AM 23.0 °F - 23.0 °F 100% 30.18 in - Calm Calm - N/A   Clear
2:20 AM 23.0 °F - 21.2 °F 93% 30.18 in - Variable 1.2 mph - N/A   Clear
2:50 AM 24.8 °F 20.5 °F 24.8 °F 100% 30.18 in - North 3.5 mph - N/A   Clear
3:20 AM 23.0 °F - 21.2 °F 93% 30.18 in - Calm Calm - N/A   Clear
3:50 AM 24.8 °F - 24.8 °F 100% 30.15 in - North 1.2 mph - N/A   Clear
4:20 AM 23.0 °F - 23.0 °F 100% 30.15 in - North 2.3 mph - N/A   Clear
4:50 AM 24.8 °F - 24.8 °F 100% 30.15 in - NNE 1.2 mph - N/A   Clear
5:20 AM 23.0 °F - 23.0 °F 100% 30.15 in - North 1.2 mph - N/A   Clear
5:50 AM 23.0 °F - 21.2 °F 93% 30.15 in - North 1.2 mph - N/A   Clear
6:20 AM 23.0 °F - 21.2 °F 93% 30.15 in - Calm Calm - N/A   Clear
6:50 AM 24.8 °F - 23.0 °F 93% 30.15 in - North 2.3 mph - N/A   Clear
7:20 AM 24.8 °F - 24.8 °F 100% 30.15 in 6.2 mi Calm Calm - N/A   Scattered Clouds
7:50 AM 26.6 °F - 24.8 °F 93% 30.15 in - Variable 1.2 mph - N/A   Clear
8:20 AM 26.6 °F - 24.8 °F 93% 30.15 in - Calm Calm - N/A   Clear
8:50 AM 28.4 °F - 26.6 °F 93% 30.15 in 6.2 mi Variable 1.2 mph - N/A   Scattered Clouds
9:20 AM 28.4 °F - 26.6 °F 93% 30.18 in 6.2 mi North 1.2 mph - N/A   Mostly Cloudy
9:50 AM 32.0 °F - 28.4 °F 87% 30.15 in 6.2 mi North 2.3 mph - N/A   Mostly Cloudy
10:20 AM 33.8 °F - 30.2 °F 87% 30.15 in 6.2 mi North 2.3 mph - N/A   Mostly Cloudy
10:50 AM 35.6 °F 32.8 °F 26.6 °F 70% 30.15 in 6.2 mi North 3.5 mph - N/A   Overcast
11:20 AM 37.4 °F - 28.4 °F 70% 30.15 in 6.2 mi Calm Calm - N/A   Overcast
11:50 AM 37.4 °F - 28.4 °F 70% 30.15 in 6.2 mi Variable 1.2 mph - N/A   Overcast
12:20 PM 39.2 °F - 28.4 °F 65% 30.15 in 6.2 mi Variable 2.3 mph - N/A   Overcast
12:50 PM 39.2 °F - 28.4 °F 65% 30.12 in 6.2 mi Variable 2.3 mph - N/A   Overcast
1:20 PM 39.2 °F - 28.4 °F 65% 30.12 in 6.2 mi Calm Calm - N/A   Overcast
1:50 PM 39.2 °F - 30.2 °F 70% 30.12 in 6.2 mi South 2.3 mph - N/A   Overcast
2:20 PM 37.4 °F - 30.2 °F 75% 30.09 in 6.2 mi Calm Calm - N/A   Overcast
2:50 PM 37.4 °F - 30.2 °F 75% 30.09 in 5.0 mi Variable 1.2 mph - N/A   Overcast
3:20 PM 37.4 °F - 30.2 °F 75% 30.09 in 5.0 mi Calm Calm - N/A   Overcast
3:50 PM 37.4 °F 33.8 °F 32.0 °F 81% 30.06 in 5.0 mi NNE 4.6 mph - N/A   Overcast
4:20 PM 37.4 °F - 32.0 °F 81% 30.06 in 5.0 mi Variable 1.2 mph - N/A   Overcast
4:50 PM 35.6 °F - 32.0 °F 87% 30.06 in 5.0 mi Variable 1.2 mph - N/A   Overcast
5:20 PM 35.6 °F - 32.0 °F 87% 30.06 in 5.0 mi SSW 1.2 mph - N/A   Overcast
5:50 PM 35.6 °F - 32.0 °F 87% 30.04 in 5.0 mi Calm Calm - N/A   Overcast
6:20 PM 33.8 °F - 32.0 °F 93% 30.04 in 5.0 mi SW 2.3 mph - N/A   Overcast
6:50 PM 35.6 °F - 33.8 °F 93% 30.04 in 5.0 mi Calm Calm - N/A   Overcast
7:20 PM 35.6 °F - 32.0 °F 87% 30.04 in 5.0 mi Calm Calm - N/A   Overcast
7:50 PM 35.6 °F - 32.0 °F 87% 30.04 in 5.0 mi Calm Calm - N/A   Overcast
8:20 PM 37.4 °F - 32.0 °F 81% 30.01 in 5.0 mi Variable 1.2 mph - N/A   Overcast
8:50 PM 35.6 °F - 32.0 °F 87% 30.01 in 5.0 mi Variable 2.3 mph - N/A   Overcast
9:20 PM 33.8 °F - 32.0 °F 93% 30.01 in 6.2 mi Calm Calm - N/A   Overcast
9:50 PM 33.8 °F - 32.0 °F 93% 30.01 in 6.2 mi Calm Calm - N/A   Overcast
10:20 PM 33.8 °F - 32.0 °F 93% 30.01 in 6.2 mi Calm Calm - N/A   Overcast
10:50 PM 33.8 °F - 33.8 °F 100% 30.01 in 6.2 mi Calm Calm - N/A   Overcast